EW3670 Weather Reports


time (UTC)temp
C
wind
direction
speed
KPH
gust
KPH
rain 1hr
cm
rain 24hr
cm
rain mn
cm
humidity
%
barometer
mb
20260504042552 11 272 0.0 9.7 0.00 0.00 0.00 56 1004.9
20260504042050 11 277 1.6 9.7 0.00 0.00 0.00 56 1004.9
20260504041553 11 0 1.6 9.7 0.00 0.00 0.00 57 1004.9
20260504041052 11 0 0.0 8.0 0.00 0.00 0.00 57 1004.9
20260504040555 11 0 0.0 9.7 0.00 0.00 0.00 58 1004.9
20260504040052 11 0 1.6 11.3 0.00 0.00 0.00 58 1004.9
20260504035549 11 0 3.2 11.3 0.00 0.00 0.00 58 1004.9
20260504035053 11 0 0.0 14.5 0.00 0.00 0.00 58 1004.9
20260504034609 11 0 3.2 16.1 0.00 0.00 0.00 57 1004.9
20260504034051 11 276 3.2 19.3 0.00 0.00 0.00 57 1005.0
20260504033551 11 285 4.8 19.3 0.00 0.00 0.00 55 1005.1
20260504033054 11 300 1.6 17.7 0.00 0.00 0.00 53 1005.0
20260504032553 11 288 4.8 17.7 0.00 0.00 0.00 52 1005.1
20260504032052 11 292 1.6 16.1 0.00 0.00 0.00 51 1005.0
20260504031555 11 282 0.0 14.5 0.00 0.00 0.00 50 1005.0
20260504031050 11 0 3.2 16.1 0.00 0.00 0.00 50 1005.0
20260504030549 12 0 3.2 16.1 0.00 0.00 0.00 49 1005.1
20260504030054 12 0 1.6 17.7 0.00 0.00 0.00 48 1005.1
20260504025550 12 270 3.2 17.7 0.00 0.00 0.00 47 1005.1
20260504025051 12 0 4.8 17.7 0.00 0.00 0.00 46 1005.1
20260504024553 12 259 1.6 12.9 0.00 0.00 0.00 45 1005.0
20260504024052 12 260 1.6 12.9 0.00 0.00 0.00 45 1005.1
20260504023552 12 0 1.6 14.5 0.00 0.00 0.00 44 1005.2
20260504023051 12 0 3.2 14.5 0.00 0.00 0.00 43 1005.2
20260504022554 12 0 0.0 12.9 0.00 0.00 0.00 42 1005.3
20260504022050 12 302 3.2 12.9 0.00 0.00 0.00 42 1005.3
20260504021554 12 0 1.6 8.0 0.00 0.00 0.00 42 1005.3
20260504021054 12 303 0.0 8.0 0.00 0.00 0.00 42 1005.3
20260504020551 12 305 0.0 6.4 0.00 0.00 0.00 41 1005.3
20260504020051 12 305 0.0 6.4 0.00 0.00 0.00 41 1005.2
20260504015551 12 0 1.6 12.9 0.00 0.00 0.00 41 1005.2
20260504015051 12 0 1.6 12.9 0.00 0.00 0.00 41 1005.2
20260504014619 12 0 1.6 16.1 0.00 0.00 0.00 42 1005.2
20260504014048 12 0 1.6 16.1 0.00 0.00 0.00 41 1005.2
20260504013552 12 298 3.2 17.7 0.00 0.00 0.00 41 1005.2
20260504013055 12 0 3.2 17.7 0.00 0.00 0.00 42 1005.2
20260504012549 12 275 3.2 17.7 0.00 0.00 0.00 41 1005.3
20260504012049 12 300 1.6 17.7 0.00 0.00 0.00 40 1005.3
20260504011559 12 277 4.8 14.5 0.00 0.00 0.00 39 1005.3
20260504011050 12 323 3.2 17.7 0.00 0.00 0.00 37 1005.2
20260504010549 12 336 3.2 17.7 0.00 0.00 0.00 37 1005.2
20260504010058 13 312 1.6 17.7 0.00 0.00 0.00 36 1005.0
20260504005552 13 281 0.0 16.1 0.00 0.00 0.00 36 1005.0
20260504005052 13 0 3.2 16.1 0.00 0.00 0.00 36 1004.9
20260504004556 13 275 1.6 12.9 0.00 0.00 0.00 35 1004.8
20260504004051 13 260 3.2 12.9 0.00 0.00 0.00 35 1004.9
20260504003551 13 0 1.6 17.7 0.00 0.00 0.00 35 1004.8
20260504003059 13 347 3.2 17.7 0.00 0.00 0.00 34 1004.8
20260504002552 13 315 3.2 17.7 0.00 0.00 0.00 33 1004.8
20260504002052 13 285 4.8 16.1 0.00 0.00 0.00 33 1004.8
20260504001601 13 327 1.6 19.3 0.00 0.00 0.00 32 1004.7
20260504001053 13 265 3.2 19.3 0.00 0.00 0.00 31 1004.7
20260504000553 13 293 4.8 14.5 0.00 0.00 0.00 31 1004.7
20260504000053 14 0 1.6 12.9 0.00 0.00 0.00 30 1004.7
20260503235553 14 306 3.2 12.9 0.00 0.00 0.00 29 1004.7
20260503235055 14 317 3.2 12.9 0.00 0.00 0.00 28 1004.7
20260503234554 14 300 1.6 9.7 0.00 0.00 0.00 28 1004.7
20260503234052 14 344 0.0 9.7 0.00 0.00 0.00 27 1004.7
20260503233552 14 321 1.6 12.9 0.00 0.00 0.00 27 1004.7
20260503233057 14 0 1.6 12.9 0.00 0.00 0.00 27 1004.7
20260503232553 14 283 3.2 12.9 0.00 0.00 0.00 27 1004.7
20260503232056 14 299 1.6 12.9 0.00 0.00 0.00 27 1004.6
20260503231551 14 0 0.0 11.3 0.00 0.00 0.00 26 1004.6
20260503231052 15 283 3.2 11.3 0.00 0.00 0.00 26 1004.7
20260503230552 15 293 0.0 9.7 0.00 0.00 0.00 26 1004.7
20260503230058 15 317 3.2 16.1 0.00 0.00 0.00 25 1004.7
20260503225551 15 295 1.6 16.1 0.00 0.00 0.00 25 1004.7
20260503225051 15 304 3.2 22.5 0.00 0.00 0.00 24 1004.7
20260503224551 15 344 4.8 22.5 0.00 0.00 0.00 24 1004.7
20260503224050 15 312 8.0 22.5 0.00 0.00 0.00 24 1004.7
20260503223553 15 324 3.2 17.7 0.00 0.00 0.00 24 1004.7
20260503223052 15 323 1.6 19.3 0.00 0.00 0.00 25 1004.7
20260503222549 15 0 6.4 19.3 0.00 0.00 0.00 24 1004.8
20260503222052 15 286 4.8 16.1 0.00 0.00 0.00 24 1004.8
20260503221552 15 0 1.6 12.9 0.00 0.00 0.00 24 1004.8
20260503221052 15 22 3.2 11.3 0.00 0.00 0.00 23 1004.8
20260503220552 16 281 3.2 16.1 0.00 0.00 0.00 23 1004.8
20260503220055 16 0 3.2 17.7 0.00 0.00 0.00 23 1004.8
20260503215551 16 313 4.8 17.7 0.00 0.00 0.00 23 1004.9
20260503215054 16 295 6.4 19.3 0.00 0.00 0.00 23 1004.9
20260503214555 16 313 6.4 19.3 0.00 0.00 0.00 22 1004.9
20260503214051 16 291 4.8 19.3 0.00 0.00 0.00 22 1004.8
20260503213549 16 298 4.8 16.1 0.00 0.00 0.00 22 1004.8
20260503213107 16 309 4.8 16.1 0.00 0.00 0.00 22 1004.9
20260503212556 16 276 3.2 16.1 0.00 0.00 0.00 23 1004.9
20260503212053 16 288 3.2 16.1 0.00 0.00 0.00 23 1004.9
20260503211554 16 304 4.8 17.7 0.00 0.00 0.00 22 1004.9
20260503211052 16 318 6.4 17.7 0.00 0.00 0.00 22 1004.9
20260503210552 16 350 4.8 29.0 0.00 0.00 0.00 23 1004.9
20260503210105 16 254 8.0 29.0 0.00 0.00 0.00 22 1005.0
20260503205549 16 355 4.8 20.9 0.00 0.00 0.00 22 1004.9
20260503205052 16 302 3.2 16.1 0.00 0.00 0.00 23 1005.0
20260503204559 16 259 4.8 22.5 0.00 0.00 0.00 23 1005.1
20260503204053 16 310 8.0 22.5 0.00 0.00 0.00 22 1005.1
20260503203550 16 315 6.4 20.9 0.00 0.00 0.00 23 1005.2
20260503203104 16 302 4.8 16.1 0.00 0.00 0.00 23 1005.1
20260503202551 16 315 3.2 16.1 0.00 0.00 0.00 24 1005.2
20260503202051 16 320 6.4 16.1 0.00 0.00 0.00 23 1005.2
20260503201554 16 338 4.8 16.1 0.00 0.00 0.00 24 1005.2
20260503201050 16 279 3.2 19.3 0.00 0.00 0.00 23 1005.2
20260503200552 16 294 4.8 20.9 0.00 0.00 0.00 24 1005.5
20260503200057 16 344 4.8 20.9 0.00 0.00 0.00 24 1005.6
20260503195551 16 298 6.4 20.9 0.00 0.00 0.00 24 1005.5
20260503195050 16 224 3.2 20.9 0.00 0.00 0.00 24 1005.5
20260503194556 16 5 8.0 20.9 0.00 0.00 0.00 24 1005.7
20260503194053 16 278 6.4 25.7 0.00 0.00 0.00 23 1005.9
20260503193549 16 218 4.8 25.7 0.00 0.00 0.00 24 1005.9
20260503193109 16 281 1.6 20.9 0.00 0.00 0.00 25 1006.0
20260503192550 16 327 4.8 24.1 0.00 0.00 0.00 25 1006.1
20260503192052 16 294 6.4 29.0 0.00 0.00 0.00 24 1006.2
20260503191556 16 291 3.2 29.0 0.00 0.00 0.00 26 1006.3
20260503191054 15 292 3.2 17.7 0.00 0.00 0.00 25 1006.4
20260503190550 16 275 4.8 17.7 0.00 0.00 0.00 25 1006.4
20260503190055 15 277 4.8 20.9 0.00 0.00 0.00 26 1006.5
20260503185551 15 5 6.4 20.9 0.00 0.00 0.00 26 1006.6
20260503185053 15 301 4.8 22.5 0.00 0.00 0.00 26 1006.5
20260503184605 15 215 9.7 22.5 0.00 0.00 0.00 26 1006.6
20260503184049 15 328 1.6 19.3 0.00 0.00 0.00 26 1006.7
20260503183550 15 299 6.4 19.3 0.00 0.00 0.00 26 1006.7
20260503183108 15 288 1.6 12.9 0.00 0.00 0.00 28 1006.9
20260503182554 15 290 4.8 17.7 0.00 0.00 0.00 26 1006.9
20260503182052 15 324 3.2 17.7 0.00 0.00 0.00 27 1007.0
20260503181607 15 339 4.8 14.5 0.00 0.00 0.00 26 1007.2
20260503181053 15 15 6.4 16.1 0.00 0.00 0.00 28 1007.3
20260503180550 15 273 3.2 16.1 0.00 0.00 0.00 27 1007.2
20260503180053 15 325 4.8 14.5 0.00 0.00 0.00 28 1007.2
20260503175552 15 336 3.2 19.3 0.00 0.00 0.00 29 1007.5
20260503175054 13 297 1.6 19.3 0.00 0.00 0.00 29 1007.5
20260503174556 13 234 4.8 16.1 0.00 0.00 0.00 29 1007.5
20260503174050 14 281 3.2 19.3 0.00 0.00 0.00 30 1007.6
20260503173550 15 276 1.6 19.3 0.00 0.00 0.00 29 1007.7
20260503173058 14 322 6.4 19.3 0.00 0.00 0.00 28 1007.8
20260503172550 14 272 4.8 19.3 0.00 0.00 0.00 29 1007.8
20260503172050 14 287 6.4 19.3 0.00 0.00 0.00 28 1007.9
20260503171552 13 282 3.2 16.1 0.00 0.00 0.00 29 1008.0
20260503171052 14 246 1.6 22.5 0.00 0.00 0.00 29 1008.1
20260503170553 13 242 3.2 22.5 0.00 0.00 0.00 28 1008.2
20260503150552 11 336 3.2 14.5 0.00 0.00 0.00 39 1009.7
20260503131052 8 287 3.2 9.7 0.00 0.00 0.00 50 1010.5
20260503130552 8 273 0.0 9.7 0.00 0.00 0.00 53 1010.5
20260503110552 5 0 1.6 11.3 0.00 0.00 0.00 65 1010.6
20260503090105 5 0 0.0 6.4 0.00 0.00 0.00 63 1010.3
20260503081622 5 313 1.6 8.0 0.00 0.00 0.00 62 1010.6
20260503081053 5 313 1.6 8.0 0.00 0.00 0.00 62 1010.6
20260503080553 5 313 1.6 6.4 0.00 0.00 0.00 62 1010.6
20260503080111 5 0 0.0 8.0 0.00 0.00 0.00 62 1010.6
20260503072552 5 288 0.0 6.4 0.00 0.00 0.00 62 1010.6
20260503072052 5 0 0.0 6.4 0.00 0.00 0.00 61 1010.7
20260503071554 5 287 0.0 6.4 0.00 0.00 0.00 61 1010.6
20260503071051 6 287 0.0 8.0 0.00 0.00 0.00 61 1010.6
20260503070555 6 287 0.0 8.0 0.00 0.00 0.00 60 1010.6
20260503055049 6 325 1.6 12.9 0.00 0.00 0.00 57 1010.9
20260503054555 6 299 1.6 12.9 0.00 0.00 0.00 57 1010.8
20260503054051 6 321 1.6 14.5 0.00 0.00 0.00 56 1010.9
20260503053551 6 323 3.2 14.5 0.00 0.00 0.00 56 1010.9
20260503053053 6 320 1.6 9.7 0.00 0.00 0.00 56 1011.0
20260503052551 6 315 0.0 9.7 0.00 0.00 0.00 55 1011.0
20260503052051 6 0 1.6 9.7 0.00 0.00 0.00 55 1011.0
20260503051557 6 0 1.6 12.9 0.00 0.00 0.00 55 1011.0
20260503051052 6 0 1.6 12.9 0.00 0.00 0.00 54 1011.1
20260503050552 6 335 3.2 8.0 0.00 0.00 0.00 54 1011.1
20260503050051 6 0 0.0 9.7 0.00 0.00 0.00 53 1011.2
20260503045552 6 306 0.0 11.3 0.00 0.00 0.00 53 1011.2
20260503045051 6 0 3.2 11.3 0.00 0.00 0.00 53 1011.2
20260503044604 6 342 1.6 9.7 0.00 0.00 0.00 53 1011.3
20260503044051 6 0 1.6 8.0 0.00 0.00 0.00 53 1011.3
20260503043552 6 302 3.2 8.0 0.00 0.00 0.00 53 1011.3
20260503043059 6 0 0.0 6.4 0.00 0.00 0.00 53 1011.3